Weather reports worldwide

Advertisment
Genthin, Germany (10365): temperature & dewpoint: 16.01.2019 04:00:00 - 22.01.2019 04:00:00 (CET)Genthin, Germany (10365): temperature 5cm & temperature -5cm: 16.01.2019 04:00:00 - 22.01.2019 04:00:00 (CET)Genthin, Germany (10365): temperature -20cm & temperature -100cm: 16.01.2019 04:00:00 - 22.01.2019 04:00:00 (CET)Genthin, Germany (10365): wind speed & gusts: 16.01.2019 04:00:00 - 22.01.2019 04:00:00 (CET)Genthin, Germany (10365): wind direction: 16.01.2019 04:00:00 - 22.01.2019 04:00:00 (CET)Genthin, Germany (10365): reduced air pressure: 16.01.2019 04:00:00 - 22.01.2019 04:00:00 (CET)Genthin, Germany (10365): visibility: 16.01.2019 04:00:00 - 22.01.2019 04:00:00 (CET)Genthin, Germany (10365): sunshine duration: 16.01.2019 04:00:00 - 22.01.2019 04:00:00 (CET)Genthin, Germany (10365): precipitation: 16.01.2019 04:00:00 - 22.01.2019 04:00:00 (CET)
Date & Time tt [°C] td [°C] tt 5cm [°C] tt -5cm [°C] tt -20cm [°C] tt -100cm [°C] ff [km/h] ff [kn] fx [km/h] fx [kn] dd ppp [hPa] vv [km] sd [min] rr [mm]
22.01.2019 04:00:00 -3,3 -4,7 -4,0 -0,5 0,8 5,7 2 1 6 3 SSE 1016,0 6 0 0,0
22.01.2019 03:00:00 -3,2 -4,7 -3,2 -0,5 0,8 5,7 4 2 12 7 SW 1016,9 7 0 0,0
22.01.2019 02:00:00 -3,2 -4,7 -3,4 -0,5 0,8 5,7 5 3 13 7 SW 1017,2 6 0 0,0
22.01.2019 01:00:00 -3,3 -4,7 -3,2 -0,5 0,8 5,7 3 2 9 5 SSW 1017,8 6 0 0,0
22.01.2019 00:00:00 -3,4 -4,7 -3,6 -0,5 0,8 5,7 5 3 11 6 S 1018,3 4,9 0 0,0
21.01.2019 23:00:00 -3,6 -4,7 -3,5 -0,6 0,8 5,7 5 3 11 6 S 1018,6 4,5 0 0,0
21.01.2019 22:00:00 -3,7 -4,7 -3,5 -0,8 0,9 5,7 5 3 8 5 S 1018,8 4,2 0 0,1
21.01.2019 21:00:00 -3,9 -4,9 -3,8 -1,0 0,9 5,7 0 0 10 5 N 1019,3 4,5 0 0,0
21.01.2019 20:00:00 -4,7 -5,8 -6,3 -0,9 0,9 5,8 5 3 9 5 S 1019,4 4,2 0 0,0
21.01.2019 19:00:00 -3,5 -4,6 -5,3 -0,4 0,9 5,8 5 3 15 8 S 1019,5 4,4 0 0,0
21.01.2019 18:00:00 -3,1 -4,2 -3,8 -0,1 0,9 5,8 3 2 12 6 S 1019,9 4,6 0 0,0
21.01.2019 17:00:00 -2,7 -3,8 -3,1 -0,1 0,9 5,8 5 3 14 8 SSW 1020,2 4,6 0 0,0
21.01.2019 16:00:00 -2,4 -4,1 -2,7 -0,2 0,9 5,8 6 3 12 7 SSW 1020,3 7 56 0,0
21.01.2019 15:00:00 -2,1 -3,9 -2,4 -0,2 0,9 5,8 6 3 12 7 SSW 1021,0 7 59 0,0
21.01.2019 14:00:00 -2,3 -4,0 -1,3 -0,3 0,9 5,8 5 3 9 5 S 1021,7 6 60 0,0
21.01.2019 13:00:00 -3,1 -4,1 -1,8 -0,4 0,9 5,8 7 4 16 8 S 1022,3 5 59 0,0
21.01.2019 12:00:00 -4,8 -5,8 -3,3 -0,5 0,9 5,8 11 6 18 10 S 1023,0 4,3 32 0,0
21.01.2019 11:00:00 -5,5 -6,4 -4,7 -0,8 0,9 5,9 4 2 8 4 SSW 1024,0 4,9 0 0,0
21.01.2019 10:00:00 -6,4 -7,3 -5,8 -1,1 0,9 5,9 3 2 8 4 WSW 1024,1 4,1 0 0,0
21.01.2019 09:00:00 -6,8 -7,4 -6,7 -1,2 0,9 5,9 5 3 14 8 S 1023,9 4,0 0 0,0
21.01.2019 08:00:00 -6,4 -6,7 -6,2 -0,9 1,0 5,9 8 4 13 7 S 1023,8 3,4 0 0,0
21.01.2019 07:00:00 -6,1 -6,7 -5,6 -0,8 1,0 5,9 7 4 13 7 SSW 1023,9 0,4 0 0,0
21.01.2019 06:00:00 -5,8 -6,2 -5,3 -0,7 1,0 5,9 6 3 13 7 S 1023,9 0,5 0 0,0
21.01.2019 05:00:00 -5,3 -5,8 -4,9 -0,6 1,0 5,9 2 1 7 4 SSW 1024,3 1,3 0 0,0
21.01.2019 04:00:00 -5,2 -5,4 -4,8 -0,6 1,0 5,9 0 0 6 4 N 1024,3 0,2 0 0,0
21.01.2019 03:00:00 -4,9 -5,3 -4,4 -0,5 1,0 5,9 3 2 9 5 S 1024,3 0,6 0 0,0
21.01.2019 02:00:00 -4,7 -5,0 -4,3 -0,5 1,1 6,0 5 3 8 4 SE 1024,2 0,4 0 0,0
21.01.2019 01:00:00 -4,6 -4,9 -4,1 -0,5 1,1 6,0 3 1 9 5 SSE 1024,3 0,2 0 0,0
21.01.2019 00:00:00 -4,4 -4,9 -3,8 -0,4 1,1 6,0 4 2 10 5 NNE 1024,3 0,1 0 0,0
20.01.2019 23:00:00 -4,6 -5,0 -4,1 -0,4 1,1 6,0 6 4 10 6 SE 1024,0 0,2 0 0,0
20.01.2019 22:00:00 -4,2 -4,3 -3,7 -0,4 1,1 6,0 3 2 11 6 NE 1023,6 0,2 0 0,0
20.01.2019 21:00:00 -4,2 -4,4 -3,7 -0,3 1,1 6,0 6 3 11 6 ENE 1023,0 0,2 0 0,0
20.01.2019 20:00:00 -4,0 -4,2 -3,4 -0,2 1,1 6,0 8 4 13 7 N 1022,4 0,1 0 0,0
20.01.2019 19:00:00 -3,6 -4,3 -4,2 -0,1 1,1 6,0 8 5 12 7 NNE 1022,0 2,9 0 0,0
20.01.2019 18:00:00 -2,9 -4,1 -5,6 -0,1 1,1 6,0 5 3 8 5 ENE 1021,2 8 0 0,0
20.01.2019 17:00:00 -2,0 -4,1 -4,6 -0,1 1,1 6,1 6 3 9 5 ENE 1020,8 13 0 0,0
20.01.2019 16:00:00 0,3 -4,4 -1,5 -0,1 1,1 6,1 6 3 9 5 ENE 1020,4 24 59 0,0
20.01.2019 15:00:00 0,6 -4,4 -0,8 -0,2 1,1 6,1 7 4 11 6 E 1020,1 26 60 0,0
20.01.2019 14:00:00 0,2 -4,4 0,9 -0,2 1,1 6,1 6 4 9 5 E 1020,0 23 60 0,0
20.01.2019 13:00:00 -0,6 -4,2 0,3 -0,3 1,1 6,1 6 3 9 5 ESE 1020,1 18 60 0,0
20.01.2019 12:00:00 -1,9 -4,8 -0,6 -0,5 1,2 6,1 6 3 9 5 E 1019,9 13 60 0,0
20.01.2019 11:00:00 -3,3 -5,2 -1,8 -0,8 1,2 6,1 5 3 8 4 E 1019,8 9 60 0,0
20.01.2019 10:00:00 -5,0 -6,5 -3,5 -1,4 1,3 6,1 4 2 6 4 ENE 1019,5 7 44 0,0
20.01.2019 09:00:00 -7,3 -8,9 -8,4 -1,7 1,3 6,1 1 1 3 2 NNE 1019,0 10 0 0,0
20.01.2019 08:00:00 -7,7 -8,6 -11,0 -1,5 1,4 6,1 2 1 3 2 ENE 1018,4 9 0 0,0
20.01.2019 07:00:00 -7,6 -8,6 -10,4 -1,3 1,4 6,2 3 2 4 2 E 1018,2 9 0 0,0
20.01.2019 06:00:00 -7,3 -8,2 -10,6 -1,1 1,5 6,2 3 2 4 2 NNE 1018,0 8 0 0,0
20.01.2019 05:00:00 -6,8 -7,5 -10,2 -0,9 1,6 6,2 3 2 5 3 E 1018,0 8 0 0,0
20.01.2019 04:00:00 -6,4 -6,9 -9,9 -0,6 1,6 6,2 3 1 4 2 ENE 1018,0 3,1 0 0,0
20.01.2019 03:00:00 -5,9 -6,4 -9,0 -0,4 1,7 6,2 0 0 4 2 N 1018,1 4,8 0 0,0
20.01.2019 02:00:00 -6,1 -6,9 -8,9 -0,1 1,7 6,2 3 2 5 3 ENE 1018,3 8 0 0,0
20.01.2019 01:00:00 -5,5 -6,1 -8,0 0,1 1,8 6,2 3 2 4 2 NE 1018,5 6 0 0,0
20.01.2019 00:00:00 -5,1 -5,6 -7,0 0,2 1,8 6,2 3 2 4 2 ENE 1018,8 7 0 0,0
19.01.2019 23:00:00 -4,9 -5,4 -6,7 0,3 1,9 6,2 2 1 3 2 E 1018,9 6 0 0,0
19.01.2019 22:00:00 -4,4 -5,1 -6,8 0,4 1,9 6,2 2 1 3 2 E 1019,0 5 0 0,0
19.01.2019 21:00:00 -3,7 -4,3 -6,1 0,5 2,0 6,3 2 1 4 2 ESE 1019,0 6 0 0,0
19.01.2019 20:00:00 -2,8 -3,4 -5,1 0,6 2,0 6,3 3 2 5 3 E 1019,1 7 0 0,0
19.01.2019 19:00:00 -2,4 -3,2 -4,4 0,6 2,0 6,3 3 2 5 3 E 1019,2 9 0 0,0
19.01.2019 18:00:00 -2,2 -3,1 -3,8 0,7 2,0 6,3 1 1 3 2 E 1019,3 7 0 0,0
19.01.2019 17:00:00 -0,9 -2,5 -2,9 0,7 2,0 6,3 3 2 4 2 E 1019,3 14 0 0,0
19.01.2019 16:00:00 0,7 -1,6 -1,1 0,9 2,0 6,3 5 3 7 4 ESE 1019,5 17 0 0,0
19.01.2019 15:00:00 1,7 -2,0 0,7 0,7 2,0 6,3 4 2 8 4 SSE 1019,8 23 15 0,0
19.01.2019 14:00:00 1,7 -2,7 1,7 0,5 2,0 6,3 6 3 8 4 SE 1020,2 27 50 0,0
19.01.2019 13:00:00 1,1 -2,2 1,1 0,4 2,0 6,3 2 1 6 3 ENE 1020,6 26 60 0,0
19.01.2019 12:00:00 0,8 -2,2 0,6 0,4 2,1 6,3 2 1 5 3 SE 1021,1 32 59 0,0
19.01.2019 11:00:00 -0,8 -3,3 -1,2 0,4 2,1 6,3 0 0 6 3 N 1021,3 23 52 0,0
19.01.2019 10:00:00 -2,1 -3,9 -2,3 0,4 2,2 6,3 3 2 6 4 S 1021,3 16 46 0,0
19.01.2019 09:00:00 -4,0 -5,0 -4,6 0,5 2,2 6,4 2 1 7 4 SE 1021,2 13 0 0,0
19.01.2019 08:00:00 -4,0 -4,8 -5,9 0,6 2,3 6,4 2 1 7 4 SE 1020,8 12 0 0,0
19.01.2019 07:00:00 -3,4 -4,5 -4,7 0,7 2,4 6,4 3 2 8 4 SSW 1020,6 13 0 0,0
19.01.2019 06:00:00 -3,3 -4,0 -5,2 0,7 2,4 6,4 0 0 6 3 N 1020,6 9 0 0,0
19.01.2019 05:00:00 -2,4 -3,1 -4,2 0,8 2,5 6,4 3 2 9 5 S 1020,6 13 0 0,0
19.01.2019 04:00:00 -1,6 -2,8 -2,9 0,9 2,6 6,4 3 2 8 4 S 1020,7 17 0 0,0
19.01.2019 03:00:00 -0,9 -2,3 -1,4 1,0 2,6 6,4 3 2 8 5 S 1020,9 18 0 0,0
19.01.2019 02:00:00 -1,0 -2,5 -2,1 1,0 2,7 6,4 5 3 9 5 SSW 1020,8 21 0 0,0
19.01.2019 01:00:00 0,5 -1,6 -0,8 1,3 2,8 6,4 4 2 9 5 SSW 1020,9 30 0 0,0
19.01.2019 00:00:00 1,2 -1,3 0,2 1,6 2,8 6,4 4 2 8 4 WSW 1020,9 36 0 0,0
18.01.2019 23:00:00 1,7 -1,3 1,2 1,6 2,8 6,4 5 3 11 6 W 1020,9 43 0 0,0
18.01.2019 22:00:00 1,4 -1,2 1,0 1,6 2,8 6,4 4 2 8 4 SW 1020,7 21 0 0,0
18.01.2019 21:00:00 1,7 -1,1 0,9 1,6 2,9 6,4 4 2 13 7 W 1020,2 43 0 0,0
18.01.2019 20:00:00 1,8 -1,3 1,4 1,6 2,9 6,4 7 4 19 10 WSW 1019,9 41 0 0,0
18.01.2019 19:00:00 1,8 -1,3 1,3 1,6 3,0 6,4 9 5 16 9 WSW 1019,6 39 0 0,0
18.01.2019 18:00:00 1,5 -1,8 1,0 1,6 3,0 6,4 8 4 16 9 SW 1019,3 42 0 0,0
18.01.2019 17:00:00 1,5 -1,9 0,8 1,7 3,1 6,5 6 3 12 7 WSW 1019,1 24 0 0,0
18.01.2019 16:00:00 2,7 -3,0 1,1 2,1 3,1 6,5 8 4 20 11 SW 1018,7 54 55 0,0
18.01.2019 15:00:00 3,4 -3,6 1,8 2,7 3,0 6,5 10 5 24 13 WSW 1018,5 45 60 0,0
18.01.2019 14:00:00 2,9 -4,0 3,8 3,1 2,8 6,5 10 6 22 12 WSW 1018,6 60 60 0,0
18.01.2019 13:00:00 1,7 -4,2 2,6 2,1 2,7 6,5 13 7 23 13 WSW 1018,8 62 60 0,0
18.01.2019 12:00:00 0,9 -4,0 1,7 1,1 2,7 6,5 10 5 22 12 WSW 1018,4 46 60 0,0
18.01.2019 11:00:00 0,1 -4,4 0,3 0,9 2,8 6,5 9 5 17 9 WSW 1018,2 56 60 0,0
18.01.2019 10:00:00 -0,8 -4,6 -0,9 0,9 2,9 6,5 9 5 19 10 W 1017,5 49 45 0,0
18.01.2019 09:00:00 -1,2 -4,2 -2,3 1,0 3,0 6,5 11 6 22 12 WNW 1016,8 47 0 0,0
18.01.2019 08:00:00 -1,3 -4,0 -2,6 1,1 3,1 6,5 12 6 24 13 WNW 1015,5 38 0 0,0
18.01.2019 07:00:00 -0,4 -3,3 -1,1 1,2 3,2 6,5 15 8 30 16 WNW 1014,2 58 0 0,0
18.01.2019 06:00:00 -0,1 -3,1 -0,9 1,3 3,3 6,5 16 9 33 18 WNW 1012,8 50 0 0,0
18.01.2019 05:00:00 0,2 -2,4 -0,8 1,4 3,5 6,5 16 8 32 18 NW 1011,3 46 0 0,0
18.01.2019 04:00:00 0,2 -1,2 -0,2 1,6 3,6 6,4 13 7 24 13 W 1009,9 56 0 0,1
18.01.2019 03:00:00 0,0 -1,7 -0,6 1,7 3,8 6,4 14 8 34 18 NW 1008,7 20 0 0,0
18.01.2019 02:00:00 0,0 -1,2 -0,1 1,9 3,9 6,4 22 12 42 23 NNW 1007,1 11 0 0,2
18.01.2019 01:00:00 2,0 -2,3 0,8 2,2 4,1 6,4 16 9 41 22 W 1005,2 64 0 0,0
18.01.2019 00:00:00 2,3 -1,0 1,1 2,6 4,2 6,4 16 9 35 19 W 1004,3 52 0 0,0
17.01.2019 23:00:00 2,4 -0,4 1,4 2,7 4,3 6,4 14 8 32 18 WSW 1003,5 60 0 0,0
17.01.2019 22:00:00 2,5 0,6 1,5 3,2 4,5 6,4 13 7 30 16 W 1002,8 42 0 0,0
17.01.2019 21:00:00 3,0 1,6 2,2 3,5 4,6 6,4 14 8 26 14 W 1001,9 34 0 0,0
17.01.2019 20:00:00 3,1 2,0 2,6 3,7 4,6 6,4 14 8 29 15 W 1000,8 21 0 0,0
17.01.2019 19:00:00 3,1 2,0 2,5 3,9 4,7 6,4 12 6 27 15 W 999,6 19 0 0,5
17.01.2019 18:00:00 3,3 2,2 2,8 4,3 4,8 6,4 9 5 26 14 WSW 999,0 11 0 1,2
17.01.2019 17:00:00 5,6 0,9 4,4 4,6 4,8 6,4 9 5 27 14 W 998,6 52 0 0,0
17.01.2019 16:00:00 6,6 0,0 5,8 4,9 4,8 6,4 11 6 30 16 WSW 998,4 64 2 0,0
17.01.2019 15:00:00 7,2 -0,2 6,6 5,0 4,7 6,4 12 7 33 18 SW 998,7 59 8 0,0
17.01.2019 14:00:00 6,7 0,0 6,0 5,5 4,5 6,4 17 9 39 21 WSW 999,2 66 40 0,0
17.01.2019 13:00:00 7,0 0,2 7,7 5,1 4,4 6,4 18 10 38 20 WSW 999,6 47 50 0,0
17.01.2019 12:00:00 5,4 1,3 4,2 4,3 4,3 6,4 9 5 26 14 WSW 1000,4 59 0 0,0
17.01.2019 11:00:00 5,7 1,9 5,4 4,3 4,2 6,4 15 8 27 15 WSW 1000,7 65 0 0,0
17.01.2019 10:00:00 5,4 1,7 4,7 3,9 4,2 6,4 10 5 26 14 WSW 1000,4 56 0 0,0
17.01.2019 09:00:00 5,1 2,3 4,6 3,7 4,1 6,4 11 6 26 14 WSW 1000,1 55 0 0,0
17.01.2019 08:00:00 5,3 2,2 4,7 3,7 4,1 6,4 16 9 34 18 WSW 999,4 54 0 0,0
17.01.2019 07:00:00 5,4 2,1 4,5 3,6 4,1 6,4 16 9 40 21 WSW 999,0 53 0 0,0
17.01.2019 06:00:00 5,6 1,2 5,0 3,4 4,1 6,4 16 9 31 17 WSW 998,6 46 0 0,0
17.01.2019 05:00:00 5,1 0,7 4,5 3,2 4,1 6,4 13 7 25 13 SW 998,7 43 0 0,0
17.01.2019 04:00:00 4,9 0,3 4,2 3,0 4,1 6,4 13 7 26 14 SW 998,7 37 0 0,0
17.01.2019 03:00:00 4,1 0,1 3,6 2,7 4,2 6,4 11 6 24 13 SSW 998,8 37 0 0,0
17.01.2019 02:00:00 3,8 0,2 2,8 2,6 4,3 6,4 12 7 26 14 SW 999,5 34 0 0,0
17.01.2019 01:00:00 3,2 0,2 2,1 2,7 4,5 6,4 9 5 22 12 SW 999,8 30 0 0,0
17.01.2019 00:00:00 3,2 0,2 2,0 3,0 4,7 6,4 8 4 16 9 SSW 1000,8 31 0 0,0
16.01.2019 23:00:00 3,4 0,3 1,8 3,4 4,8 6,4 7 4 16 9 SSW 1001,7 28 0 0,0
16.01.2019 22:00:00 4,3 0,4 3,2 3,9 5,0 6,4 9 5 22 12 SSW 1002,5 35 0 0,0
16.01.2019 21:00:00 4,8 0,7 3,9 4,3 5,1 6,3 10 5 26 14 SSW 1003,0 40 0 0,0
16.01.2019 20:00:00 5,5 0,7 4,9 4,7 5,1 6,3 14 8 29 16 SW 1004,0 43 0 0,0
16.01.2019 19:00:00 6,0 1,4 5,3 4,9 5,2 6,3 15 8 32 17 SW 1004,3 47 0 0,0
16.01.2019 18:00:00 6,6 2,4 6,0 5,2 5,2 6,3 13 7 27 15 SW 1004,8 53 0 0,0
16.01.2019 17:00:00 7,1 2,9 6,3 5,4 5,2 6,3 13 7 23 12 SW 1005,3 61 0 0,0
16.01.2019 16:00:00 7,5 3,4 6,8 5,6 5,1 6,3 10 6 27 15 SW 1005,8 57 0 0,0
16.01.2019 15:00:00 7,7 3,5 7,2 5,7 5,1 6,3 11 6 26 14 SW 1006,2 62 0 0,0
16.01.2019 14:00:00 7,9 3,4 7,5 5,7 5,0 6,3 15 8 31 17 SW 1006,7 60 0 0,0
16.01.2019 13:00:00 7,8 3,4 7,4 5,5 4,9 6,3 14 7 28 15 WSW 1007,3 65 0 0,0
16.01.2019 12:00:00 7,6 3,5 7,2 5,3 4,8 6,3 12 6 27 15 SW 1008,1 54 0 0,0
16.01.2019 11:00:00 7,4 3,7 6,8 5,1 4,7 6,3 15 8 31 17 WSW 1008,7 52 0 0,0
16.01.2019 10:00:00 7,1 3,7 6,6 4,9 4,7 6,3 14 7 32 17 SW 1008,8 45 0 0,0
16.01.2019 09:00:00 6,6 3,7 6,0 4,7 4,7 6,3 12 6 27 15 WSW 1008,9 31 0 0,0
16.01.2019 08:00:00 6,3 3,5 5,7 4,7 4,7 6,3 13 7 24 13 SW 1008,8 28 0 0,0
16.01.2019 07:00:00 6,2 3,7 5,2 4,8 4,7 6,3 13 7 29 15 WSW 1008,9 14 0 0,0
16.01.2019 06:00:00 6,8 3,4 6,2 5,0 4,6 6,3 16 8 34 19 W 1009,3 27 0 0,0
16.01.2019 05:00:00 7,3 3,8 6,7 5,1 4,6 6,4 19 10 36 19 W 1009,6 29 0 0,0
16.01.2019 04:00:00 7,3 4,5 6,7 5,1 4,5 6,4 16 9 39 21 W 1009,6 20 0 0,0

tt = temperature
td = dewpoint
tt 5cm = temperature 5cm
tt -5cm = temperature -5cm
tt -20cm = temperature -20cm
tt -100cm = temperature -100cm
ff = wind speed
fx = gusts
dd = wind direction
ppp = reduced air pressure
vv = visibility
sd = sunshine duration
rr = precipitation

Next stations